Fargo, ND

3:45 PM CST on January 20, 2017 (GMT -0600)
Hector International

Weather History for KFAR - March, 2013

Change the Weather History Date:

Thursday, March 7, 2013

  Actual Average Record
Temperature  
Mean Temperature 18 °F 23 °F  
Max Temperature 30 °F 31 °F 65 °F (2016)
Min Temperature 6 °F 15 °F -22 °F (1883)
Degree Days  
Heating Degree Days 47 42  
Month to date heating degree days 319 303  
Since 1 July heating degree days 6910 6981  
Cooling Degree Days 0 0  
Month to date cooling degree days 0 0  
Year to date cooling degree days 0 0  
Moisture  
Dew Point 13 °F    
Average Humidity 75    
Maximum Humidity 92    
Minimum Humidity 58    
Precipitation  
Precipitation 0.00 in 0.03 in 0.59 in (1983)
Month to date precipitation 0.48 0.26  
Year to date precipitation 2.67 1.57  
Snow  
Snow 0.00 in 0.30 in 4.80 in (1897)
Month to date snowfall 4.8 2.5  
Since 1 July snowfall 41.9 40.5  
Snow Depth 15.00 in    
Sea Level Pressure  
Sea Level Pressure 30.27 in    
Wind  
Wind Speed 14 mph (SSE)    
Max Wind Speed 29 mph    
Max Gust Speed 37 mph    
Visibility 9 miles    
Events Snow    
T = Trace of Precipitation, MM = Missing Value Source: NWS Daily Summary

Daily Weather History Graph

Daily Weather History Graph

Search for Another Location

Airport or City:

Trip Planner

Search our weather history database for the weather conditions in past years. The results will help you decide how hot, cold, wet, or windy it might be!

Date:

Astronomy

Mar. 07, 2013 Rise Set
Actual Time 6:55 AM CST 6:21 PM CST
Civil Twilight 6:24 AM CST 6:52 PM CST
Nautical Twilight 5:49 AM CST 7:27 PM CST
Astronomical Twilight 5:14 AM CST 8:03 PM CST
Moon 4:09 AM CST (3/7) 1:58 PM CST (3/7)
Length of Visible Light 12h 27m
Length of Day
11h 26m
Waning Crescent, 20% of the Moon is Illuminated
Mar 7
Waning Crescent
Mar 11
New
Mar 19
First Quarter
Mar 27
Full
Apr 2
Last Quarter

Hourly Weather History & Observations

Time (CST) Temp. Windchill Dew Point Humidity Pressure Visibility Wind Dir Wind Speed Gust Speed Precip Events Conditions
12:53 AM 9.0 °F 0.6 °F 5.0 °F 84% 30.37 in 10.0 mi SE 4.6 mph - N/A   Clear
1:53 AM 10.9 °F 2.9 °F 7.0 °F 84% 30.38 in 7.0 mi ESE 4.6 mph - N/A   Clear
2:53 AM 10.9 °F 0.2 °F 6.1 °F 81% 30.35 in 8.0 mi SE 6.9 mph - N/A   Clear
3:53 AM 12.0 °F -1.3 °F 8.1 °F 84% 30.32 in 8.0 mi SE 10.4 mph - N/A   Clear
4:48 AM 12.2 °F -1.0 °F 8.6 °F 85% 30.25 in 10.0 mi SE 10.4 mph - N/A   Scattered Clouds
4:53 AM 12.9 °F 0.7 °F 8.1 °F 81% 30.30 in 9.0 mi SE 9.2 mph - N/A   Mostly Cloudy
5:26 AM 12.2 °F -1.8 °F 8.6 °F 85% 30.25 in 9.0 mi SSE 11.5 mph - N/A   Scattered Clouds
5:53 AM 12.9 °F 0.7 °F 8.1 °F 81% 30.31 in 7.0 mi SSE 9.2 mph - N/A   Partly Cloudy
6:12 AM 12.2 °F -0.2 °F 8.6 °F 85% 30.25 in 4.0 mi SSE 9.2 mph - N/A   Haze
6:22 AM 12.2 °F -1.8 °F 8.6 °F 85% 30.25 in 6.0 mi SSE 11.5 mph - N/A   Partly Cloudy
6:53 AM 14.0 °F 1.2 °F 9.0 °F 80% 30.32 in 7.0 mi SSE 10.4 mph - N/A   Clear
7:53 AM 15.1 °F 3.3 °F 10.0 °F 80% 30.32 in 8.0 mi SE 9.2 mph - N/A   Clear
8:53 AM 16.0 °F 2.3 °F 10.9 °F 81% 30.31 in 9.0 mi SE 12.7 mph 25.3 mph N/A   Partly Cloudy
9:53 AM 18.0 °F 3.6 °F 10.9 °F 74% 30.31 in 10.0 mi SSE 15.0 mph - N/A   Mostly Cloudy
10:33 AM 19.4 °F 4.1 °F 14.0 °F 80% 30.24 in 8.0 mi SSE 18.4 mph 27.6 mph N/A   Mostly Cloudy
10:53 AM 21.0 °F 7.1 °F 15.1 °F 78% 30.29 in 8.0 mi SSE 16.1 mph 27.6 mph N/A   Scattered Clouds
11:53 AM 24.1 °F 9.4 °F 17.1 °F 75% 30.28 in 7.0 mi SSE 20.7 mph 31.1 mph 0.00 in   Overcast
12:53 PM 26.1 °F 10.4 °F 17.1 °F 69% 30.27 in 6.0 mi SE 26.5 mph 34.5 mph 0.00 in   Haze
1:53 PM 27.0 °F 12.5 °F 17.1 °F 66% 30.23 in 6.0 mi SSE 23.0 mph 34.5 mph 0.00 in Snow Light Snow
2:53 PM 28.9 °F 15.8 °F 18.0 °F 64% 30.21 in 10.0 mi SE 20.7 mph 27.6 mph 0.00 in   Clear
3:53 PM 30.0 °F 16.9 °F 17.1 °F 59% 30.19 in 10.0 mi SE 21.9 mph 34.5 mph N/A   Clear
4:53 PM 28.9 °F 16.5 °F 16.0 °F 58% 30.22 in 10.0 mi SSE 18.4 mph 24.2 mph 0.00 in   Clear
5:53 PM 27.0 °F 16.1 °F 16.0 °F 63% 30.23 in 10.0 mi South 12.7 mph - N/A   Clear
6:53 PM 26.1 °F 14.0 °F 15.1 °F 63% 30.25 in 10.0 mi SSE 15.0 mph 23.0 mph N/A   Clear
7:53 PM 25.0 °F 13.6 °F 16.0 °F 69% 30.25 in 10.0 mi SSE 12.7 mph - N/A   Mostly Cloudy
8:53 PM 26.1 °F 15.0 °F 16.0 °F 66% 30.25 in 10.0 mi SSE 12.7 mph - N/A   Overcast
9:28 PM 24.8 °F 13.4 °F 15.8 °F 69% 30.19 in 10.0 mi SSE 12.7 mph - N/A   Overcast
9:53 PM 25.0 °F 14.2 °F 16.0 °F 69% 30.25 in 10.0 mi SSE 11.5 mph - N/A   Overcast
10:53 PM 25.0 °F 12.6 °F 16.0 °F 69% 30.26 in 10.0 mi South 15.0 mph - N/A   Overcast
11:53 PM 25.0 °F 12.2 °F 17.1 °F 72% 30.25 in 10.0 mi South 16.1 mph - N/A   Overcast